When you browse on this site, cookies collect data to enhance your experience and personalize the content and advertising you see.
Visit our Privacy Policy to learn more. By continuing to use the site, you agree to this use of cookies and data.
  • în România
  • Lista ţărilor
  • Pe 7 zile
  • Temperatura apei
  • Hartă satelitară
  • Meteo pe hartă
  • Widget-uri
  • user-avatar
    Intrare

    Meteo pe oră la Balchik

    Astăzi, 25 Mai, Sâmbătă

    Timp Temperatura Precipitaţii Vânt Presiune Umiditate
    00:00 +13°C° 0 mm 4 m/s 733 mmHg 92%
    01:00 +12°C° 0 mm 4 m/s 733 mmHg 92%
    02:00 +11°C° 0 mm 4 m/s 733 mmHg 92%
    03:00 +11°C° 0 mm 4 m/s 734 mmHg 92%
    04:00 +10°C° 0 mm 5 m/s 734 mmHg 93%
    05:00 +10°C° 0 mm 5 m/s 734 mmHg 93%
    06:00 +12°C° 0 mm 5 m/s 734 mmHg 90%
    07:00 +14°C° 0 mm 5 m/s 735 mmHg 86%
    08:00 +15°C° 0 mm 6 m/s 735 mmHg 81%
    09:00 +17°C° 0.2 mm 5 m/s 735 mmHg 77%
    10:00 +19°C° 0.2 mm 5 m/s 735 mmHg 73%
    11:00 +21°C° 0.2 mm 4 m/s 735 mmHg 69%
    12:00 +21°C° 2 mm 4 m/s 735 mmHg 69%
    13:00 +21°C° 2 mm 4 m/s 735 mmHg 69%
    14:00 +21°C° 0 mm 3 m/s 736 mmHg 69%
    15:00 +21°C° 1.2 mm 3 m/s 736 mmHg 70%
    16:00 +21°C° 1.2 mm 3 m/s 736 mmHg 70%
    17:00 +21°C° 1.2 mm 2 m/s 736 mmHg 70%
    18:00 +19°C° 0.3 mm 2 m/s 736 mmHg 75%
    19:00 +18°C° 0.3 mm 2 m/s 736 mmHg 81%
    20:00 +17°C° 0.3 mm 2 m/s 736 mmHg 86%
    21:00 +16°C° 0 mm 3 m/s 736 mmHg 88%
    22:00 +14°C° 0 mm 3 m/s 737 mmHg 90%
    23:00 +14°C° 0 mm 3 m/s 737 mmHg 92%

    Mâine, 26 Mai, Duminică

    Timp Temperatura Precipitaţii Vânt Presiune Umiditate
    00:00 +14°C° 0 mm 3 m/s 737 mmHg 92%
    01:00 +13°C° 0 mm 3 m/s 737 mmHg 92%
    02:00 +13°C° 0 mm 3 m/s 737 mmHg 92%
    03:00 +13°C° 0 mm 3 m/s 738 mmHg 93%
    04:00 +13°C° 0 mm 3 m/s 738 mmHg 93%
    05:00 +13°C° 0 mm 3 m/s 738 mmHg 93%
    06:00 +14°C° 0 mm 3 m/s 738 mmHg 88%
    07:00 +17°C° 0 mm 3 m/s 739 mmHg 84%
    08:00 +19°C° 0 mm 3 m/s 739 mmHg 79%
    09:00 +20°C° 0.1 mm 2 m/s 739 mmHg 73%
    10:00 +23°C° 0.1 mm 2 m/s 740 mmHg 67%
    11:00 +24°C° 0.1 mm 1 m/s 740 mmHg 61%
    12:00 +25°C° 0.9 mm 1 m/s 740 mmHg 61%
    13:00 +25°C° 0.9 mm 2 m/s 740 mmHg 60%
    14:00 +25°C° 0.9 mm 2 m/s 740 mmHg 59%
    15:00 +25°C° 0.6 mm 2 m/s 740 mmHg 62%
    16:00 +25°C° 0.6 mm 2 m/s 739 mmHg 65%
    17:00 +24°C° 0.6 mm 2 m/s 739 mmHg 68%
    18:00 +21°C° 0.1 mm 2 m/s 739 mmHg 74%
    19:00 +19°C° 0.1 mm 3 m/s 739 mmHg 81%
    20:00 +18°C° 0.1 mm 3 m/s 739 mmHg 88%
    21:00 +17°C° 0 mm 2 m/s 740 mmHg 87%
    22:00 +17°C° 0 mm 2 m/s 740 mmHg 86%
    23:00 +16°C° 0 mm 2 m/s 740 mmHg 85%

    Poimâine, 27 Mai, Luni

    Timp Temperatura Precipitaţii Vânt Presiune Umiditate
    00:00 +16°C° 0 mm 2 m/s 740 mmHg 84%
    01:00 +16°C° 0 mm 2 m/s 740 mmHg 84%
    02:00 +16°C° 0 mm 2 m/s 740 mmHg 84%
    03:00 +16°C° 0 mm 2 m/s 740 mmHg 85%
    04:00 +16°C° 0 mm 2 m/s 740 mmHg 86%
    05:00 +15°C° 0 mm 2 m/s 740 mmHg 86%
    06:00 +17°C° 0 mm 2 m/s 740 mmHg 82%
    07:00 +19°C° 0 mm 2 m/s 740 mmHg 77%
    08:00 +21°C° 0 mm 3 m/s 741 mmHg 73%
    09:00 +22°C° 0 mm 3 m/s 741 mmHg 69%
    10:00 +23°C° 0 mm 4 m/s 741 mmHg 64%
    11:00 +25°C° 0 mm 4 m/s 741 mmHg 60%
    12:00 +25°C° 0 mm 5 m/s 741 mmHg 59%
    13:00 +25°C° 0 mm 5 m/s 741 mmHg 58%
    14:00 +25°C° 0 mm 5 m/s 740 mmHg 57%
    15:00 +23°C° 0 mm 5 m/s 740 mmHg 61%
    16:00 +22°C° 0 mm 5 m/s 740 mmHg 64%
    17:00 +22°C° 0 mm 4 m/s 739 mmHg 67%
    18:00 +20°C° 0 mm 4 m/s 739 mmHg 75%
    19:00 +18°C° 0 mm 3 m/s 739 mmHg 82%
    20:00 +16°C° 0 mm 3 m/s 739 mmHg 90%
    21:00 +14°C° 0 mm 3 m/s 739 mmHg 90%
    22:00 +14°C° 0 mm 3 m/s 739 mmHg 91%
    23:00 +14°C° 0 mm 3 m/s 739 mmHg 92%

    28 Mai, Marţi

    Timp Temperatura Precipitaţii Vânt Presiune Umiditate
    00:00 +13°C° 0 mm 3 m/s 739 mmHg 92%
    01:00 +13°C° 0 mm 3 m/s 739 mmHg 92%
    02:00 +13°C° 0 mm 3 m/s 738 mmHg 93%
    03:00 +13°C° 0 mm 3 m/s 738 mmHg 92%
    04:00 +13°C° 0 mm 3 m/s 738 mmHg 92%
    05:00 +13°C° 0 mm 3 m/s 737 mmHg 91%
    06:00 +16°C° 0 mm 3 m/s 737 mmHg 86%
    07:00 +18°C° 0 mm 4 m/s 738 mmHg 81%
    08:00 +20°C° 0 mm 4 m/s 738 mmHg 76%
    09:00 +21°C° 0 mm 4 m/s 737 mmHg 71%
    10:00 +23°C° 0 mm 4 m/s 737 mmHg 67%
    11:00 +25°C° 0 mm 4 m/s 737 mmHg 62%
    12:00 +25°C° 0 mm 5 m/s 737 mmHg 61%
    13:00 +26°C° 0 mm 5 m/s 736 mmHg 59%
    14:00 +26°C° 0 mm 5 m/s 736 mmHg 58%
    15:00 +26°C° 0 mm 5 m/s 736 mmHg 61%
    16:00 +25°C° 0 mm 5 m/s 735 mmHg 64%
    17:00 +23°C° 0 mm 5 m/s 735 mmHg 67%
    18:00 +21°C° 0 mm 4 m/s 735 mmHg 73%
    19:00 +20°C° 0 mm 4 m/s 734 mmHg 78%
    20:00 +18°C° 0 mm 4 m/s 734 mmHg 84%
    21:00 +18°C° 0 mm 4 m/s 734 mmHg 84%
    22:00 +18°C° 0 mm 4 m/s 734 mmHg 84%
    23:00 +17°C° 0 mm 4 m/s 734 mmHg 85%

    29 Mai, Miercuri

    Timp Temperatura Precipitaţii Vânt Presiune Umiditate
    00:00 +17°C° 0 mm 4 m/s 734 mmHg 86%
    01:00 +17°C° 0 mm 3 m/s 734 mmHg 87%
    02:00 +17°C° 0 mm 3 m/s 734 mmHg 88%
    03:00 +16°C° 0 mm 3 m/s 734 mmHg 83%
    04:00 +14°C° 0 mm 3 m/s 734 mmHg 79%
    05:00 +14°C° 0 mm 3 m/s 734 mmHg 75%
    06:00 +17°C° 0 mm 3 m/s 734 mmHg 71%
    07:00 +19°C° 0 mm 3 m/s 734 mmHg 68%
    08:00 +22°C° 0 mm 3 m/s 735 mmHg 64%
    09:00 +24°C° 0 mm 3 m/s 735 mmHg 61%
    10:00 +26°C° 0 mm 3 m/s 735 mmHg 58%
    11:00 +27°C° 0 mm 3 m/s 735 mmHg 54%
    12:00 +28°C° 0 mm 3 m/s 735 mmHg 52%
    13:00 +29°C° 0 mm 3 m/s 735 mmHg 50%
    14:00 +29°C° 0 mm 3 m/s 735 mmHg 48%
    15:00 +29°C° 0 mm 3 m/s 735 mmHg 51%
    16:00 +28°C° 0 mm 3 m/s 735 mmHg 54%
    17:00 +28°C° 0 mm 3 m/s 735 mmHg 58%
    18:00 +26°C° 0 mm 2 m/s 735 mmHg 64%
    19:00 +24°C° 0 mm 2 m/s 735 mmHg 69%
    20:00 +21°C° 0 mm 2 m/s 735 mmHg 75%
    21:00 +20°C° 0 mm 2 m/s 735 mmHg 75%
    22:00 +20°C° 0 mm 2 m/s 735 mmHg 76%
    23:00 +20°C° 0 mm 2 m/s 736 mmHg 76%

    30 Mai, Joi

    Timp Temperatura Precipitaţii Vânt Presiune Umiditate
    00:00 +20°C° 0 mm 2 m/s 736 mmHg 76%
    01:00 +20°C° 0 mm 2 m/s 736 mmHg 77%
    02:00 +19°C° 0 mm 2 m/s 736 mmHg 77%
    03:00 +20°C° 0 mm 2 m/s 736 mmHg 75%
    04:00 +20°C° 0 mm 2 m/s 737 mmHg 73%
    05:00 +20°C° 0 mm 2 m/s 737 mmHg 71%
    06:00 +21°C° 0 mm 3 m/s 737 mmHg 71%
    07:00 +22°C° 0 mm 3 m/s 737 mmHg 70%
    08:00 +24°C° 0 mm 3 m/s 738 mmHg 69%
    09:00 +25°C° 1 mm 3 m/s 738 mmHg 67%
    10:00 +26°C° 1 mm 3 m/s 738 mmHg 65%
    11:00 +27°C° 1 mm 4 m/s 738 mmHg 63%
    12:00 +27°C° 1.2 mm 3 m/s 738 mmHg 61%
    13:00 +27°C° 1.2 mm 3 m/s 738 mmHg 58%
    14:00 +28°C° 1.2 mm 2 m/s 738 mmHg 56%
    15:00 +28°C° 0.3 mm 2 m/s 738 mmHg 56%
    16:00 +28°C° 0.3 mm 2 m/s 738 mmHg 56%
    17:00 +28°C° 0.3 mm 2 m/s 738 mmHg 56%
    18:00 +26°C° 0.5 mm 1 m/s 738 mmHg 61%
    19:00 +24°C° 0.5 mm 1 m/s 738 mmHg 66%
    20:00 +22°C° 0.5 mm 1 m/s 738 mmHg 71%
    21:00 +22°C° 0.1 mm 1 m/s 738 mmHg 71%
    22:00 +20°C° 0.1 mm 2 m/s 739 mmHg 72%
    23:00 +19°C° 0.1 mm 3 m/s 739 mmHg 73%
    Arată mai mult